Barcelona, Spain

5:05 PM CEST on September 21, 2017 (GMT +0200)
El Prat

Weather History for LEBL - March, 2013

Change the Weather History Date:

Tuesday, March 12, 2013

  Actual Average Record
Temperature  
Mean Temperature 58 °F -  
Max Temperature 62 °F 60 °F 65 °F (2015)
Min Temperature 53 °F 47 °F 39 °F (2005)
Degree Days  
Heating Degree Days 8    
Growing Degree Days 8 (Base 50)    
Moisture  
Dew Point 42 °F    
Average Humidity 57    
Maximum Humidity 82    
Minimum Humidity 32    
Precipitation  
Precipitation 0.00 in 0.06 in - ()
Sea Level Pressure  
Sea Level Pressure 29.53 in    
Wind  
Wind Speed 9 mph ()    
Max Wind Speed 21 mph    
Max Gust Speed 23 mph    
Visibility 7.2 miles    
Events      
Averages and records for this station are not official NWS values.
T = Trace of Precipitation, MM = Missing Value Source: Averaged Metar Reports

Daily Weather History Graph

Daily Weather History Graph

Search for Another Location

Airport or City:

Trip Planner

Search our weather history database for the weather conditions in past years. The results will help you decide how hot, cold, wet, or windy it might be!

Date:

Astronomy

Mar. 12, 2013 Rise Set
Actual Time 7:08 AM CET 6:55 PM CET
Civil Twilight 6:40 AM CET 7:22 PM CET
Nautical Twilight 6:08 AM CET 7:54 PM CET
Astronomical Twilight 5:36 AM CET 8:27 PM CET
Moon 7:05 AM CET (3/12) 7:55 PM CET (3/12)
Length of Visible Light 12h 41m
Length of Day
11h 46m
New Moon, 0% of the Moon is Illuminated
Mar 12
New Moon
Mar 19
First Quarter
Mar 27
Full
Apr 3
Last Quarter
Apr 10
New

Hourly Weather History & Observations

Time (CET) Temp. Dew Point Humidity Pressure Visibility Wind Dir Wind Speed Gust Speed Precip Events Conditions
12:00 AM 55.4 °F 42.8 °F 63% 29.56 in 6.2 mi NNW 9.2 mph - N/A   Partly Cloudy
12:30 AM 57.2 °F 39.2 °F 51% 29.56 in 6.2 mi NW 6.9 mph - N/A   Partly Cloudy
1:00 AM 55 °F 40 °F 45% 29.58 in 19 mi West 8.1 mph - -   Scattered Clouds
1:00 AM 57.2 °F 41.0 °F 55% 29.56 in 6.2 mi North 5.8 mph - N/A   Partly Cloudy
2:00 AM 55.4 °F 41.0 °F 58% 29.56 in 6.2 mi Calm Calm - N/A   Partly Cloudy
2:30 AM 55.4 °F 41.0 °F 58% 29.53 in 6.2 mi Calm Calm - N/A   Partly Cloudy
3:00 AM 55.4 °F 41.0 °F 58% 29.53 in 6.2 mi WSW 10.4 mph - N/A   Partly Cloudy
3:30 AM 55.4 °F 41.0 °F 58% 29.53 in 6.2 mi SW 6.9 mph - N/A   Partly Cloudy
4:00 AM 55.4 °F 41.0 °F 58% 29.53 in 6.2 mi WSW 10.4 mph - N/A   Partly Cloudy
4:30 AM 55.4 °F 39.2 °F 54% 29.53 in 6.2 mi West 10.4 mph - N/A   Partly Cloudy
5:00 AM 55.4 °F 39.2 °F 54% 29.50 in 6.2 mi West 6.9 mph - N/A   Partly Cloudy
5:30 AM 55.4 °F 39.2 °F 54% 29.50 in 6.2 mi West 8.1 mph - N/A   Partly Cloudy
6:00 AM 55.4 °F 37.4 °F 51% 29.50 in 6.2 mi West 13.8 mph - N/A   Partly Cloudy
6:30 AM 55.4 °F 37.4 °F 51% 29.50 in 6.2 mi West 15.0 mph - N/A   Partly Cloudy
7:00 AM 54 °F 37 °F 40% 29.54 in 19 mi WSW 10.4 mph - -   Scattered Clouds
7:00 AM 55.4 °F 39.2 °F 54% 29.50 in 6.2 mi WSW 12.7 mph - N/A   Partly Cloudy
7:30 AM 53.6 °F 39.2 °F 58% 29.53 in 6.2 mi West 10.4 mph - N/A   Scattered Clouds
8:00 AM 55.4 °F 41.0 °F 58% 29.53 in 6.2 mi WNW 6.9 mph 19.6 mph N/A   Scattered Clouds
8:30 AM 55.4 °F 39.2 °F 54% 29.53 in 6.2 mi West 10.4 mph - N/A   Scattered Clouds
9:00 AM 55.4 °F 39.2 °F 54% 29.56 in 6.2 mi WNW 8.1 mph - N/A   Scattered Clouds
9:30 AM 55.4 °F 39.2 °F 54% 29.56 in 6.2 mi NW 3.5 mph - N/A   Scattered Clouds
10:00 AM 55.4 °F 39.2 °F 54% 29.56 in 6.2 mi West 4.6 mph - N/A   Partly Cloudy
10:30 AM 57.2 °F 41.0 °F 55% 29.56 in 6.2 mi NNW 8.1 mph - N/A   Partly Cloudy
11:00 AM 57.2 °F 39.2 °F 51% 29.56 in 6.2 mi WNW 11.5 mph - N/A   Partly Cloudy
11:30 AM 59.0 °F 41.0 °F 51% 29.56 in 6.2 mi NNW 10.4 mph 23.0 mph N/A   Partly Cloudy
12:00 PM 59.0 °F 42.8 °F 55% 29.56 in 6.2 mi NW 5.8 mph - N/A   Scattered Clouds
12:30 PM 59.0 °F 41.0 °F 51% 29.56 in 6.2 mi South 10.4 mph - N/A   Scattered Clouds
1:00 PM 60 °F 38 °F 32% 29.58 in 19 mi South 8.1 mph - -   Partly Cloudy
1:00 PM 59.0 °F 41.0 °F 51% 29.56 in 6.2 mi South 9.2 mph - N/A   Scattered Clouds
1:30 PM 60.8 °F 39.2 °F 45% 29.56 in 6.2 mi South 9.2 mph - N/A   Scattered Clouds
2:00 PM 60.8 °F 41.0 °F 48% 29.53 in 6.2 mi SSE 9.2 mph - N/A   Scattered Clouds
2:30 PM 60.8 °F 44.6 °F 55% 29.53 in 6.2 mi South 11.5 mph - N/A   Scattered Clouds
3:00 PM 60.8 °F 46.4 °F 59% 29.53 in 6.2 mi SSW 15.0 mph - N/A   Scattered Clouds
3:30 PM 60.8 °F 46.4 °F 59% 29.53 in 6.2 mi SW 15.0 mph - N/A   Scattered Clouds
4:30 PM 59.0 °F 46.4 °F 63% 29.50 in 6.2 mi SW 16.1 mph - N/A   Scattered Clouds
5:00 PM 60.8 °F 46.4 °F 59% 29.50 in 6.2 mi SW 18.4 mph - N/A   Scattered Clouds
5:30 PM 60.8 °F 46.4 °F 59% 29.50 in 6.2 mi SW 19.6 mph - N/A   Scattered Clouds
6:00 PM 59.0 °F 48.2 °F 67% 29.50 in 6.2 mi SW 20.7 mph - N/A   Partly Cloudy
6:30 PM 57.2 °F 48.2 °F 72% 29.50 in 6.2 mi SW 20.7 mph - N/A   Partly Cloudy
7:00 PM 56 °F 44 °F 53% 29.52 in 19 mi WSW 15.0 mph - -   Partly Cloudy
7:00 PM 57.2 °F 46.4 °F 67% 29.50 in 6.2 mi SW 19.6 mph - N/A   Scattered Clouds
7:30 PM 57.2 °F 39.2 °F 51% 29.50 in 6.2 mi WSW 16.1 mph - N/A   Scattered Clouds
8:00 PM 57.2 °F 39.2 °F 51% 29.50 in 6.2 mi WSW 12.7 mph - N/A   Scattered Clouds
8:30 PM 55.4 °F 41.0 °F 58% 29.50 in 6.2 mi WSW 6.9 mph - N/A   Scattered Clouds
9:00 PM 55.4 °F 44.6 °F 67% 29.50 in 6.2 mi SSW 6.9 mph - N/A   Partly Cloudy
9:30 PM 57.2 °F 46.4 °F 67% 29.50 in 6.2 mi SW 5.8 mph - N/A   Partly Cloudy
10:00 PM 55.4 °F 46.4 °F 72% 29.50 in 6.2 mi SSW 3.5 mph - N/A   Partly Cloudy
10:30 PM 55.4 °F 46.4 °F 72% 29.50 in 6.2 mi SSE 2.3 mph - N/A   Scattered Clouds
11:00 PM 53.6 °F 46.4 °F 77% 29.50 in 6.2 mi NE 9.2 mph - N/A   Scattered Clouds
11:30 PM 53.6 °F 48.2 °F 82% 29.50 in 6.2 mi NE 13.8 mph - N/A   Partly Cloudy